Back to catalog

DELTA 1 DEB

AliveSSO
NORAD 42079·DEBRIS·🇺🇸 United States

Launched Dec 15, 1968 from Vandenberg Space Force Base

Loading…

Next Passes (next 24 hours)

TLE

AgingSource: Space-Track

Epoch: Sep 8, 2026, 20:27 UTC

1 42079U 68114F   26251.85244259 -.00000053  00000-0 -59128-4 0  9996
2 42079 102.0340 218.8950 0315892 288.2127  96.9466 12.26265472572691

Track DELTA 1 DEB in real time with AllMySat

Download on the App Store